Flag for Russia Past Weather in Petropavlovsk-Kamchatsky, Russia — Yesterday and Last 2 Weeks

Now
59 °F

Clear.


Feels Like: 58 °F
Forecast: 54 / 76 °F
Wind: 8 mph from North

Location: Petropavlovsk-Kamchatskij

Current Time: Jul 25, 2016 at 8:36:41 AM

Latest Report: Jul 25, 2016 at 8:00 AM


Visibility: N/A

Pressure: 30.09 "Hg

Humidity: 72%

Dew Point: 50 °F

Location of Petropavlovsk-KamchatskyLocation

Past Weather in Petropavlovsk-Kamchatsky — Graph

°F

Petropavlovsk-Kamchatsky Temperature Yesterday

Maximum temperature yesterday: 79 °F (at 3:00 PM)
Minimum temperature yesterday: 54 °F (at 6:00 AM)
Average temperature yesterday: 68 °F

High & Low Weather Summary for the Past Weeks

 TemperatureHumidityPressure
High79 °F (Jul 22, 2:30 PM)100% (Jul 10, 11:30 AM)30.24 "Hg (Jul 10, 11:30 AM)
Low46 °F (Jul 13, 12:00 AM)45% (Jul 24, 3:00 PM)29.83 "Hg (Jul 10, 7:00 AM)
Average57 °F85%30.05 "Hg
* Reported Jul 10 7:00 AM — Jul 25 7:00 AM, Petropavlovsk-Kamchatsky, Weather by CustomWeather, © 2016

Note: Actual official high and low records may vary slightly from our data, if they occured in-between our weather recording intervals... More about our weather records

Advertising

Petropavlovsk-Kamchatsky Weather History for the Previous 24 Hours

Scroll right to see more
 ConditionsComfort  
Time TempWeatherWind HumidityBarometerVisibility
7:00 AM
Mon, Jul 25
55 °FClear.8 mph77%30.09 "HgN/A
6:00 AM54 °FClear.6 mph82%30.09 "HgN/A
3:00 AM55 °FClear.8 mph77%30.07 "HgN/A
12:00 AM57 °FClear.8 mph72%30.07 "HgN/A
9:00 PM
Sun, Jul 24
70 °FClear.3 mph50%30.04 "HgN/A
8:30 PM70 °FClear.3 mph64%30.01 "HgN/A
8:00 PM72 °FClear.3 mph65%30.01 "HgN/A
7:00 PM73 °FClear.8 mph53%29.98 "HgN/A
6:30 PM73 °FClear.10 mph53%29.98 "HgN/A
6:00 PM75 °FClear.10 mph50%29.98 "HgN/A
5:30 PM77 °FClear.8 mph51%29.98 "HgN/A
4:30 PM79 °FClear.8 mph48%29.98 "HgN/A
4:00 PM79 °FClear.8 mph45%30.01 "HgN/A
3:00 PM79 °FClear.3 mph45%30.01 "HgN/A
2:00 PM75 °FClear.3 mph50%30.01 "HgN/A
1:30 PM75 °FClear.1 mph47%30.04 "HgN/A
12:30 PM73 °FClear.1 mph50%30.04 "HgN/A
12:00 PM72 °FClear.3 mph53%30.04 "HgN/A
11:00 AM66 °FClear.3 mph56%30.07 "HgN/A
10:00 AM64 °FClear.6 mph60%30.07 "HgN/A
9:30 AM63 °FClear.6 mph64%30.07 "HgN/A
9:00 AM61 °FClear.6 mph68%30.07 "HgN/A
8:30 AM59 °FClear.8 mph72%30.09 "HgN/A
Weather by CustomWeather, © 2016

See weather overviewHow to use our weather pages